Location: Charlie Elliott
(33.4688°N, 83.7353°W)
Time: 16:10:20
(UTC-04:00)

N. Korean satellite - Visible Passes

Search period start: 31 October 2020 00:00
Search period end: 09 November 2020 23:00
Orbit: 452 x 505 km, 97.2° (Epoch: 31 October)

Date Brightness Start Highest point End Pass type
(mag) Time Alt. Az. Time Alt. Az. Time Alt. Az.
31 Oct 10.2 06:03:57 10° ENE 06:04:49 11° E 06:05:41 10° ESE visible
01 Nov 6.3 06:08:44 10° N 06:12:09 73° WNW 06:15:33 10° SSW visible
01 Nov 9.8 18:14:01 10° SW 18:16:26 17° W 18:18:50 10° NW visible
02 Nov 7.8 05:42:45 10° NNE 05:46:00 41° E 05:49:16 10° S visible
03 Nov 9.5 05:17:24 10° NE 05:19:47 18° E 05:22:10 10° SE visible
04 Nov 6.8 06:23:43 10° N 06:26:58 41° WNW 06:30:14 10° SSW visible
04 Nov 10.5 18:30:36 10° WSW 18:31:23 11° W 18:32:10 10° W visible
05 Nov 6.7 05:57:27 10° NNE 06:00:52 74° E 06:04:19 10° S visible
05 Nov 9.4 18:02:12 10° SSW 18:05:06 24° W 18:07:59 10° NW visible
06 Nov 8.7 05:31:39 10° NE 05:34:41 28° E 05:37:43 10° SSE visible
07 Nov 10.0 05:06:51 10° ENE 05:08:25 13° E 05:09:58 10° ESE visible
08 Nov 6.4 06:12:16 10° N 06:15:40 63° WNW 06:19:06 10° SSW visible
08 Nov 9.9 18:17:55 10° SW 18:19:59 15° W 18:22:03 10° WNW visible
09 Nov 7.5 05:46:10 10° NNE 05:49:31 48° E 05:52:54 10° S visible
